K5GTX Weather Reports


time (UTC)temp
C
wind
direction
speed
KPH
gust
KPH
rain 1hr
cm
rain 24hr
cm
rain mn
cm
humidity
%
barometer
mb
20260508170535 23 32 3.2 4.8 0.00 1.52 1.52 99 1019.7
20260508170032 22 127 3.2 4.8 0.00 1.52 1.52 99 1019.7
20260508165529 22 180 3.2 9.7 0.00 1.52 1.52 99 1019.6
20260508165026 22 143 4.8 6.4 0.00 1.52 1.52 99 1019.9
20260508164523 21 236 4.8 4.8 0.00 1.52 1.52 99 1019.9
20260508164019 21 120 0.0 4.8 0.00 1.52 1.52 99 1019.9
20260508163517 21 208 0.0 3.2 0.00 1.52 1.52 99 1020.3
20260508163013 21 106 1.6 3.2 0.00 1.52 1.52 99 1020.4
20260508162511 21 112 0.0 8.0 0.00 1.52 1.52 99 1020.8
20260508162008 21 157 0.0 6.4 0.00 1.52 1.52 99 1020.6
20260508161504 21 216 0.0 6.4 0.00 1.52 1.52 99 1020.5
20260508161001 20 255 0.0 4.8 0.00 1.52 1.52 99 1020.7
20260508160500 20 168 0.0 6.4 0.00 1.52 1.52 99 1020.7
20260508155956 21 275 0.0 8.0 0.00 1.52 1.52 99 1020.7
20260508155453 21 213 4.8 17.7 0.00 1.52 1.52 99 1020.5
20260508154950 20 176 0.0 6.4 0.00 1.52 1.52 99 1021.0
20260508154448 20 270 1.6 3.2 0.00 1.52 1.52 99 1021.0
20260508153944 20 265 3.2 3.2 0.00 1.52 1.52 99 1021.1
20260508153441 19 270 1.6 1.6 0.00 1.52 1.52 99 1020.9
20260508152937 19 262 0.0 3.2 0.00 1.52 1.52 99 1020.9
20260508152434 19 263 0.0 3.2 0.00 1.52 1.52 99 1021.1
20260508151930 18 117 0.0 0.0 9.12 1.52 1.52 99 1020.9
20260508151427 19 254 0.0 1.6 9.12 1.52 1.52 99 1021.2
20260508150924 19 219 0.0 0.0 0.00 0.00 0.00 99 1021.2
20260508150420 19 225 0.0 3.2 0.00 0.00 0.00 99 1021.1
20260508145916 19 257 0.0 1.6 0.00 0.00 0.00 99 1021.3
20260508145413 18 253 0.0 3.2 0.00 0.00 0.00 99 1021.1
20260508144910 18 254 0.0 4.8 0.00 0.00 0.00 99 1021.2
20260508144408 18 209 0.0 6.4 0.00 0.00 0.00 99 1020.9
20260508143905 18 180 0.0 1.6 0.00 0.00 0.00 99 1021.1
20260508143402 18 235 0.0 3.2 0.00 0.00 0.00 99 1021.2
20260508142859 18 236 0.0 3.2 0.00 0.00 0.00 99 1021.4
20260508142356 18 254 0.0 1.6 0.00 0.00 0.00 99 1021.2
20260508141852 17 261 0.0 0.0 0.00 0.00 0.00 99 1021.1
20260508141349 16 234 0.0 3.2 0.00 0.00 0.00 99 1021.4
20260508140847 16 270 0.0 3.2 0.00 0.00 0.00 99 1021.6
20260508140343 16 294 0.0 3.2 0.00 0.00 0.00 99 1021.4
20260508135839 16 270 0.0 0.0 0.00 0.00 0.00 99 1021.3
20260508135335 16 270 0.0 0.0 0.00 0.00 0.00 99 1021.4
20260508134832 16 261 0.0 3.2 0.00 0.00 0.00 99 1021.5
20260508134328 16 173 0.0 1.6 0.00 0.00 0.00 99 1021.5
20260508133825 16 255 0.0 0.0 0.00 0.00 0.00 99 1021.1
20260508133323 16 270 1.6 1.6 0.00 0.00 0.00 99 1021.2
20260508132820 15 180 0.0 1.6 0.00 0.00 0.00 99 1021.4
20260508132318 15 259 0.0 3.2 0.00 0.00 0.00 99 1021.5
20260508131814 15 279 0.0 0.0 0.00 0.00 0.00 99 1021.4
20260508131310 15 270 0.0 0.0 0.00 0.00 0.00 99 1021.2
20260508130806 15 278 1.6 3.2 0.00 0.00 0.00 99 1021.1
20260508130304 15 255 0.0 0.0 0.00 0.00 0.00 99 1021.5
20260508125800 15 255 0.0 1.6 0.00 0.00 0.00 99 1021.9
20260508125256 15 282 3.2 3.2 0.00 0.00 0.00 99 1021.9
20260508124754 15 286 0.0 1.6 0.00 0.00 0.00 99 1021.7
20260508124251 15 278 0.0 0.0 0.00 0.00 0.00 99 1021.7
20260508123749 15 261 0.0 3.2 0.00 0.00 0.00 99 1021.9
20260508123247 15 218 0.0 3.2 0.00 0.00 0.00 99 1021.7
20260508122743 15 285 0.0 0.0 0.00 0.00 0.00 99 1021.7
20260508122240 15 285 0.0 3.2 0.00 0.00 0.00 99 1021.7
20260508121737 15 279 0.0 0.0 0.00 0.00 0.00 99 1021.7
20260508121236 15 236 0.0 3.2 0.00 0.00 0.00 99 1021.6
20260508120733 15 221 0.0 3.2 0.00 0.00 0.00 99 1021.3
20260508120231 15 270 0.0 0.0 0.00 0.00 0.00 99 1021.5
20260508115728 15 206 0.0 3.2 0.00 0.00 0.00 99 1021.9
20260508115226 15 270 1.6 3.2 0.00 0.00 0.00 99 1021.7
20260508114722 15 262 1.6 3.2 0.00 0.00 0.00 99 1021.4
20260508114218 15 292 3.2 3.2 0.00 0.00 0.00 99 1021.4
20260508113715 15 246 0.0 3.2 0.00 0.00 0.00 99 1021.6
20260508113214 15 261 0.0 0.0 0.00 0.00 0.00 99 1021.6
20260508112709 15 306 0.0 1.6 0.00 0.00 0.00 99 1021.4
20260508112207 15 270 0.0 0.0 0.00 0.00 0.00 99 1021.2
20260508111703 15 270 0.0 1.6 0.00 0.00 0.00 99 1021.1
20260508111201 15 215 0.0 4.8 0.00 0.00 0.00 99 1021.4
20260508110658 15 114 0.0 1.6 0.00 0.00 0.00 99 1021.2
20260508110155 15 261 0.0 1.6 0.00 0.00 0.00 99 1021.8
20260508105655 15 297 1.6 3.2 0.00 0.00 0.00 99 1022.3
20260508105152 15 286 0.0 4.8 0.00 0.00 0.00 99 1021.8
20260508104649 15 246 0.0 0.0 0.00 0.00 0.00 99 1021.5
20260508104146 15 246 0.0 3.2 0.00 0.00 0.00 99 1021.6
20260508103643 15 314 6.4 9.7 0.00 0.00 0.00 99 1022.2
20260508103140 15 331 0.0 3.2 0.00 0.00 0.00 99 1021.3
20260508102637 15 328 0.0 0.0 0.00 0.00 0.00 99 1020.9
20260508102136 15 325 1.6 6.4 0.00 0.00 0.00 99 1021.4
20260508101632 15 283 3.2 4.8 0.00 0.00 0.00 99 1020.8
20260508101130 15 261 0.0 1.6 0.00 0.00 0.00 99 1020.4
20260508100627 15 277 0.0 3.2 0.00 0.00 0.00 99 1020.3
20260508100125 15 261 0.0 3.2 0.00 0.00 0.00 99 1020.5
20260508095621 15 270 0.0 0.0 0.00 0.00 0.00 99 1020.4
20260508095119 15 270 0.0 1.6 0.00 0.00 0.00 99 1020.7
20260508094615 15 270 0.0 1.6 0.00 0.00 0.00 99 1020.6
20260508094112 15 270 0.0 1.6 0.00 0.00 0.00 99 1020.4
20260508093609 15 254 0.0 0.0 0.00 0.00 0.00 99 1020.6
20260508093107 15 254 0.0 3.2 0.00 0.00 0.00 99 1020.9
20260508092604 15 285 1.6 1.6 0.00 0.00 0.00 99 1020.9
20260508092103 15 270 0.0 0.0 0.00 0.00 0.00 99 1020.8
20260508091559 15 270 0.0 1.6 0.00 0.00 0.00 99 1020.6
20260508091056 15 294 0.0 1.6 0.00 0.00 0.00 99 1020.8
20260508090554 15 233 3.2 3.2 0.00 0.00 0.00 99 1021.3
20260508090051 15 262 0.0 0.0 0.00 0.00 0.00 99 1020.9
20260508085547 15 234 1.6 3.2 0.00 0.00 0.00 99 1021.7
20260508085045 15 254 1.6 3.2 0.00 0.00 0.00 99 1021.4
20260508084541 15 291 6.4 6.4 0.00 0.00 0.00 99 1021.4
20260508084039 15 303 3.2 4.8 0.00 0.00 0.00 99 1021.0
20260508083536 15 75 0.0 3.2 0.00 0.00 0.00 99 1020.3
20260508083032 15 246 0.0 3.2 0.00 0.00 0.00 99 1020.9
20260508082528 15 279 0.0 0.0 0.00 0.00 0.00 99 1021.2
20260508082026 15 279 0.0 3.2 0.00 0.00 0.00 99 1021.8
20260508081523 15 90 0.0 3.2 0.00 0.00 0.00 99 1021.7
20260508081019 16 90 0.0 0.0 0.00 0.00 0.00 99 1021.5
20260508080517 16 120 1.6 3.2 0.00 0.00 0.00 99 1021.7
20260508080014 16 303 0.0 4.8 0.00 0.00 0.00 99 1022.3
20260508075511 16 257 0.0 6.4 0.00 0.00 0.00 99 1022.6
20260508075008 16 270 1.6 3.2 0.00 0.00 0.00 99 1022.7
20260508074506 16 261 0.0 3.2 0.00 0.00 0.00 99 1022.4
20260508074003 16 251 3.2 4.8 0.00 0.00 0.00 99 1022.4
20260508073500 16 98 0.0 0.0 0.00 0.00 0.00 99 1021.8
20260508072957 16 98 0.0 0.0 0.00 0.00 0.00 99 1022.0
20260508072453 15 98 0.0 0.0 0.00 0.00 0.00 99 1021.8
20260508071950 15 98 0.0 0.0 0.00 0.00 0.00 99 1021.8
20260508071448 15 15 0.0 1.6 0.00 0.00 0.00 99 1022.1
20260508070945 15 99 0.0 0.0 0.00 0.00 0.00 99 1021.8
20260508070443 15 99 0.0 0.0 0.00 0.00 0.00 99 1021.9
20260508065941 15 99 0.0 0.0 0.00 0.00 0.00 99 1021.9
20260508065439 15 81 0.0 0.0 0.00 0.00 0.00 99 1022.2
20260508064937 15 90 0.0 0.0 0.00 0.00 0.00 99 1022.2
20260508064434 15 90 0.0 0.0 0.00 0.00 0.00 99 1022.5
20260508063931 15 66 0.0 3.2 0.00 0.00 0.00 99 1022.6
20260508063429 15 14 0.0 1.6 0.00 0.00 0.00 99 1022.7
20260508062926 15 90 0.0 0.0 0.00 0.00 0.00 99 1022.4
20260508062424 15 195 0.0 0.0 0.00 0.00 0.00 99 1022.6
20260508061921 15 195 0.0 0.0 0.00 0.00 0.00 99 1022.9
20260508061419 15 114 0.0 0.0 0.00 0.00 0.00 99 1022.8
20260508060914 15 114 0.0 0.0 0.00 0.00 0.00 99 1022.4
20260508060412 15 114 0.0 1.6 0.00 0.00 0.00 99 1022.4
20260508055907 15 114 0.0 1.6 0.00 0.00 0.00 99 1022.1
20260508055405 15 99 0.0 0.0 0.00 0.00 0.00 99 1022.5
20260508054901 15 99 0.0 0.0 0.00 0.00 0.00 99 1022.4
20260508054358 15 99 0.0 0.0 0.00 0.00 0.00 99 1022.4
20260508053855 15 99 0.0 0.0 0.00 0.00 0.00 99 1022.2
20260508053353 15 99 0.0 0.0 0.00 0.00 0.00 99 1022.5
20260508052850 16 99 0.0 0.0 0.00 0.00 0.00 99 1022.5
20260508052347 16 99 0.0 0.0 0.00 0.00 0.00 99 1022.7
20260508051843 15 99 0.0 0.0 0.00 0.00 0.00 99 1022.7
20260508051339 16 99 0.0 0.0 0.00 0.00 0.00 99 1022.6
20260508050835 16 99 0.0 0.0 0.00 0.00 0.00 99 1022.6
20260508050333 16 99 0.0 0.0 0.00 0.00 0.00 99 1022.3
20260508045828 16 99 0.0 0.0 0.00 0.00 0.00 99 1022.5
20260508045326 16 99 0.0 0.0 0.00 0.00 0.00 99 1022.5
20260508044823 16 99 0.0 0.0 0.00 0.00 0.00 99 1022.6
20260508044320 16 99 0.0 0.0 0.00 0.00 0.00 99 1022.5
20260508043816 16 99 0.0 0.0 0.00 0.00 0.00 99 1022.4
20260508043313 16 99 0.0 0.0 0.00 0.00 0.00 99 1022.2
20260508042810 16 66 0.0 1.6 0.00 0.00 0.00 99 1022.5
20260508042308 16 114 0.0 0.0 0.00 0.00 0.00 99 1022.4
20260508041804 16 114 0.0 0.0 0.00 0.00 0.00 99 1022.4
20260508041301 16 114 0.0 0.0 0.00 0.00 0.00 99 1022.3
20260508040757 16 90 0.0 0.0 0.00 0.00 0.00 99 1022.4
20260508040255 16 20 0.0 0.0 0.00 0.00 0.00 99 1022.4
20260508035752 16 20 0.0 0.0 0.00 0.00 0.00 99 1022.2
20260508035249 16 20 0.0 0.0 0.00 0.00 0.00 99 1022.5
20260508034745 16 20 0.0 0.0 0.00 0.00 0.00 99 1022.5
20260508034243 16 32 0.0 3.2 0.00 0.00 0.00 99 1022.5
20260508033740 16 54 0.0 1.6 0.00 0.00 0.00 99 1022.4
20260508033238 16 90 0.0 1.6 0.00 0.00 0.00 99 1022.4
20260508032735 16 90 0.0 0.0 0.00 0.00 0.00 99 1022.3
20260508032232 16 90 0.0 0.0 0.00 0.00 0.00 99 1022.2
20260508031729 16 90 0.0 0.0 0.00 0.00 0.00 99 1022.3
20260508031225 16 99 0.0 0.0 0.00 0.00 0.00 99 1022.3
20260508030722 16 99 0.0 0.0 0.00 0.00 0.00 99 1022.1
20260508030220 16 99 0.0 0.0 0.00 0.00 0.00 99 1022.2
20260508025716 17 99 0.0 0.0 0.00 0.00 0.00 99 1022.2
20260508025213 17 99 0.0 0.0 0.00 0.00 0.00 99 1022.2
20260508024709 17 90 0.0 0.0 0.00 0.00 0.00 99 1022.1
20260508024206 17 99 0.0 0.0 0.00 0.00 0.00 99 1022.2
20260508023702 17 99 0.0 1.6 0.00 0.00 0.00 99 1021.9
20260508023200 17 99 0.0 0.0 0.00 0.00 0.00 99 1021.9
20260508022655 17 90 0.0 0.0 0.00 0.00 0.00 99 1021.8
20260508022153 17 90 0.0 0.0 0.00 0.00 0.00 99 1021.6
20260508021649 17 90 0.0 0.0 0.00 0.00 0.00 99 1021.9
20260508021144 17 90 0.0 0.0 0.00 0.00 0.00 99 1021.7
20260508020643 17 90 0.0 0.0 0.00 0.00 0.00 99 1021.7
20260508020140 17 90 0.0 0.0 0.00 0.00 0.00 99 1021.6
20260508015637 17 90 0.0 0.0 0.00 0.00 0.00 99 1021.6
20260508015134 17 90 0.0 0.0 0.00 0.00 0.00 99 1021.8
20260508014630 17 90 0.0 0.0 0.00 0.00 0.00 99 1021.8
20260508014126 18 90 0.0 0.0 0.00 0.00 0.00 99 1021.8
20260508013623 18 90 0.0 0.0 0.00 0.00 0.00 99 1021.7
20260508013120 18 90 0.0 0.0 0.00 0.00 0.00 99 1021.7
20260508012617 18 90 0.0 0.0 0.00 0.00 0.00 99 1021.7
20260508012114 18 98 0.0 0.0 0.00 0.00 0.00 99 1021.4
20260508011613 18 105 0.0 1.6 0.00 0.00 0.00 99 1021.7
20260508011110 18 99 0.0 1.6 0.00 0.00 0.00 99 1021.7
20260508010606 18 261 0.0 1.6 0.00 0.00 0.00 99 1021.6
20260508010105 19 151 0.0 4.8 0.00 0.00 0.00 99 1021.5
20260508005601 19 90 1.6 1.6 0.00 0.00 0.00 99 1021.3
20260508005057 19 90 0.0 3.2 0.00 0.00 0.00 99 1021.6
20260508004553 19 90 1.6 1.6 0.00 0.00 0.00 99 1021.5
20260508004050 20 145 0.0 4.8 0.00 0.00 0.00 99 1021.4
20260508003546 20 90 0.0 3.2 0.00 0.00 0.00 99 1021.4
20260508003044 20 140 0.0 3.2 0.00 0.00 0.00 99 1021.3
20260508002540 20 160 0.0 4.8 0.00 0.00 0.00 99 1021.6
20260508002038 20 146 0.0 3.2 0.00 0.00 0.00 99 1021.6
20260508001533 20 148 3.2 3.2 0.00 0.00 0.00 99 1021.6
20260508001029 20 90 0.0 3.2 0.00 0.00 0.00 99 1021.5
20260508000525 21 194 0.0 4.8 0.00 0.00 0.00 99 1021.7
20260508000023 21 140 0.0 4.8 0.00 0.00 0.00 99 1021.6
20260507235519 21 144 0.0 3.2 0.00 0.00 0.00 99 1021.4
20260507235017 22 103 0.0 3.2 0.00 0.00 0.00 99 1021.5
20260507234513 22 120 0.0 6.4 0.00 0.00 0.00 99 1021.2
20260507234010 22 114 1.6 4.8 0.00 0.00 0.00 99 1021.4
20260507233506 22 98 0.0 3.2 0.00 0.00 0.00 99 1021.6
20260507233006 22 103 1.6 3.2 0.00 0.00 0.00 99 1021.4
20260507232501 22 254 0.0 1.6 0.00 0.00 0.00 99 1021.5
20260507231959 22 124 0.0 3.2 0.00 0.00 0.00 99 1021.2
20260507231455 22 99 0.0 3.2 0.00 0.00 0.00 99 1021.7
20260507230952 22 90 0.0 3.2 0.00 0.00 0.00 99 1021.5
20260507230449 22 105 1.6 4.8 0.00 0.00 0.00 99 1021.6
20260507225944 22 114 0.0 3.2 0.00 0.00 0.00 99 1021.5
20260507225440 22 115 3.2 3.2 0.00 0.00 0.00 99 1021.5
20260507224937 22 90 1.6 3.2 0.00 0.00 0.00 99 1021.6
20260507224432 22 90 3.2 3.2 0.00 0.00 0.00 99 1021.7
20260507223930 22 107 0.0 3.2 0.00 0.00 0.00 99 1021.8
20260507223426 22 100 0.0 3.2 0.00 0.00 0.00 99 1021.7
20260507222923 22 90 0.0 3.2 0.00 0.00 0.00 99 1022.0
20260507222420 22 117 1.6 3.2 0.00 0.00 0.00 99 1022.1
20260507221916 22 126 0.0 3.2 0.00 0.00 0.00 99 1022.0
20260507221413 22 124 4.8 4.8 0.00 0.00 0.00 99 1021.8
20260507220908 22 143 0.0 3.2 0.00 0.00 0.00 99 1021.9
20260507220407 22 112 0.0 3.2 0.00 0.00 0.00 99 1022.0
20260507215903 23 120 0.0 3.2 0.00 0.00 0.00 99 1021.9
20260507215400 23 96 0.0 4.8 0.00 0.00 0.00 99 1021.9
20260507214857 23 114 1.6 4.8 0.00 0.00 0.00 99 1022.1
20260507214355 23 125 0.0 3.2 0.00 0.00 0.00 99 1022.1
20260507213850 23 114 0.0 3.2 0.00 0.00 0.00 99 1022.2
20260507213347 23 120 0.0 3.2 0.00 0.00 0.00 99 1022.1
20260507212844 23 84 1.6 3.2 0.00 0.00 0.00 99 1022.2
20260507212340 23 157 1.6 3.2 0.00 0.00 0.00 99 1022.3
20260507211836 24 85 0.0 4.8 0.00 0.00 0.00 99 1022.5
20260507211333 24 111 0.0 1.6 0.00 0.00 0.00 99 1022.2
20260507210830 23 265 3.2 4.8 0.00 0.00 0.00 99 1022.6
20260507210327 24 105 0.0 3.2 0.00 0.00 0.00 99 1022.4
20260507205823 24 77 0.0 6.4 0.00 0.00 0.00 99 1022.5
20260507205321 24 101 3.2 6.4 0.00 0.00 0.00 99 1022.2
20260507204816 24 49 3.2 3.2 0.00 0.00 0.00 99 1022.4
20260507204314 23 0 0.0 8.0 0.00 0.00 0.00 99 1022.3
20260507203812 23 249 0.0 4.8 0.00 0.00 0.00 99 1022.4
20260507203310 23 0 3.2 6.4 0.00 0.00 0.00 99 1022.5
20260507202805 23 248 3.2 3.2 0.00 0.00 0.00 99 1022.7
20260507202306 23 105 0.0 3.2 0.00 0.00 0.00 99 1022.8
20260507201756 23 100 3.2 4.8 0.00 0.00 0.00 99 1022.8
20260507201253 23 52 0.0 11.3 0.00 0.00 0.00 99 1022.7
20260507200750 23 93 6.4 8.0 0.00 0.00 0.00 99 1023.0
20260507200246 23 34 8.0 11.3 0.00 0.00 0.00 99 1023.0
20260507195742 23 36 4.8 9.7 0.00 0.00 0.00 99 1023.1
20260507195239 23 331 0.0 4.8 0.00 0.00 0.00 99 1023.0
20260507194737 23 21 3.2 4.8 0.00 0.00 0.00 99 1023.2
20260507194232 22 28 4.8 16.1 0.00 0.00 0.00 99 1023.2
20260507193729 23 28 6.4 11.3 0.00 0.00 0.00 99 1023.3
20260507193226 22 73 8.0 8.0 0.00 0.00 0.00 99 1023.3
20260507192722 22 0 1.6 16.1 0.00 0.00 0.00 99 1023.6
20260507192219 23 152 3.2 6.4 0.00 0.00 0.00 99 1023.4
20260507191715 22 338 3.2 12.9 0.00 0.00 0.00 99 1023.6
20260507191213 22 114 4.8 6.4 0.00 0.00 0.00 99 1023.8
20260507190709 22 66 11.3 11.3 0.00 0.00 0.00 99 1023.8
20260507190208 22 63 1.6 6.4 0.00 0.00 0.00 99 1023.6
20260507185706 22 106 4.8 9.7 0.00 0.00 0.00 99 1023.7
20260507185202 22 146 3.2 11.3 0.00 0.00 0.00 99 1023.6
20260507184700 21 0 8.0 9.7 0.00 0.00 0.00 99 1023.8
20260507184158 21 54 1.6 12.9 0.00 0.00 0.00 99 1024.0
20260507183654 21 25 9.7 9.7 0.00 0.00 0.00 99 1024.3
20260507183151 21 68 3.2 12.9 0.00 0.00 0.00 99 1024.0
20260507182648 21 168 0.0 3.2 0.00 0.00 0.00 99 1024.1
20260507182143 21 62 0.0 16.1 0.00 0.00 0.00 99 1024.3
20260507181640 21 90 3.2 9.7 0.00 0.00 0.00 99 1024.2
20260507181136 21 120 0.0 12.9 0.00 0.00 0.00 99 1024.5
20260507180633 20 60 4.8 11.3 0.00 0.00 0.00 99 1024.7
20260507180130 21 11 3.2 6.4 0.00 0.00 0.00 99 1024.4
20260507175626 20 299 4.8 8.0 0.00 0.00 0.00 99 1024.7
20260507175123 20 49 8.0 12.9 0.00 0.00 0.00 99 1024.7
20260507174620 20 29 1.6 16.1 0.00 0.00 0.00 99 1024.8
20260507174118 20 58 8.0 16.1 0.00 0.00 0.00 99 1025.0
20260507173615 20 64 4.8 9.7 0.00 0.00 0.00 99 1025.4
20260507173112 20 90 1.6 6.4 0.00 0.00 0.00 99 1025.2
20260507172608 20 105 0.0 12.9 0.00 0.00 0.00 99 1025.4
20260507172106 20 349 3.2 4.8 0.00 0.00 0.00 99 1025.6
20260507171600 20 117 0.0 6.4 0.00 0.00 0.00 99 1025.8
20260507171058 20 28 3.2 8.0 0.00 0.00 0.00 99 1026.3
20260507170555 20 82 1.6 9.7 0.00 0.00 0.00 99 1026.3